Powrót do katalogu

DELTA 1 DEB

AktywnyPO
NORAD 12291·DEBRIS·🇺🇸 United States

Wystrzelony Mar 5, 1978 z Vandenberg Space Force Base

Loading…

Następne Przeloty (najbliższe 24 godziny)

TLE

ŚwieżeSource: Space-Track

Epoka: Sep 14, 2026, 02:21 UTC

1 12291U 78026EK  26257.09844515  .00001397  00000-0  49458-3 0  9999
2 12291  99.2759 101.6089 0041325 156.5227 320.7126 14.35861682346442

Śledź DELTA 1 DEB w czasie rzeczywistym z AllMySat

Download on the App Store